BAW794 EGLL-LJLJ

Flight info

Callsign BAW794
Flight time N/A
Altitude 37000
Route DET L6 DVR UL9 KONAN UL607 REMBA DCT RITAX DCT PITES DCT BABEG DCT KUMOM DCT LUMUS LUMUS4L
Aircraft A320/M-SDE3FGHIRWY/LB1

Departure

Time 2026-04-30 13:43
Airport London Heathrow Airport (EGLL)

Arrival

Time N/A
Airport Ljubljana Jože Pučnik Airport (LJLJ)
Time Latitude Longitude Altitude Speed Heading
2026-04-30 13:23 51.46899 -0.45938 86 ft 0 kts 55°
2026-04-30 13:34 51.46899 -0.45939 86 ft 2 kts 55°
2026-04-30 13:34 51.46875 -0.46036 87 ft 4 kts 137°
2026-04-30 13:35 51.46870 -0.46032 87 ft 4 kts 145°
2026-04-30 13:35 51.46857 -0.46018 88 ft 0 kts 145°
2026-04-30 13:37 51.46841 -0.46000 89 ft 10 kts 146°
2026-04-30 13:38 51.46664 -0.46025 89 ft 14 kts 244°
2026-04-30 13:38 51.46660 -0.46191 88 ft 16 kts 270°
2026-04-30 13:38 51.46658 -0.46608 88 ft 22 kts 269°
2026-04-30 13:39 51.46656 -0.47125 89 ft 25 kts 270°
2026-04-30 13:39 51.46654 -0.47739 86 ft 29 kts 270°
2026-04-30 13:40 51.46653 -0.47987 86 ft 17 kts 269°
2026-04-30 13:40 51.46653 -0.48122 86 ft 10 kts 270°
2026-04-30 13:40 51.46631 -0.48209 86 ft 7 kts 203°
2026-04-30 13:40 51.46596 -0.48213 87 ft 0 kts 180°
2026-04-30 13:41 51.46595 -0.48213 87 ft 1 kts 180°
2026-04-30 13:41 51.46536 -0.48212 88 ft 14 kts 179°
2026-04-30 13:41 51.46478 -0.48157 90 ft 10 kts 98°
2026-04-30 13:42 51.46479 -0.48111 89 ft 4 kts 89°
2026-04-30 13:42 51.46479 -0.48091 87 ft 0 kts 89°
2026-04-30 13:42 51.46482 -0.47168 87 ft 101 kts 90°
2026-04-30 13:43 51.46487 -0.45775 94 ft 147 kts 90°
2026-04-30 13:43 51.46494 -0.44107 603 ft 150 kts 91°
2026-04-30 13:43 51.46493 -0.42409 1297 ft 151 kts 98°
2026-04-30 13:43 51.46056 -0.40911 1927 ft 153 kts 130°
2026-04-30 13:44 51.45394 -0.39586 2572 ft 152 kts 121°
2026-04-30 13:44 51.44865 -0.38131 3145 ft 153 kts 118°
2026-04-30 13:44 51.44312 -0.36543 3483 ft 175 kts 119°
2026-04-30 13:44 51.43707 -0.34711 3761 ft 198 kts 111°
2026-04-30 13:45 51.42984 -0.29914 4615 ft 242 kts 105°
2026-04-30 13:45 51.42602 -0.27245 5433 ft 248 kts 106°
2026-04-30 13:45 51.42227 -0.24524 6271 ft 253 kts 105°
2026-04-30 13:46 51.41846 -0.21723 7040 ft 261 kts 106°
2026-04-30 13:46 51.41457 -0.18862 7862 ft 265 kts 105°
2026-04-30 13:46 51.41064 -0.15967 8727 ft 268 kts 105°
2026-04-30 13:46 51.40668 -0.13045 9590 ft 270 kts 105°
2026-04-30 13:47 51.40265 -0.10077 10395 ft 274 kts 105°
2026-04-30 13:47 51.39836 -0.06970 10650 ft 297 kts 105°
2026-04-30 13:47 51.39369 -0.03630 10933 ft 315 kts 105°
2026-04-30 13:47 51.38887 -0.00158 11525 ft 322 kts 105°
2026-04-30 13:48 51.38398 0.03361 12247 ft 326 kts 104°
2026-04-30 13:48 51.37902 0.06923 12928 ft 330 kts 105°
2026-04-30 13:48 51.37399 0.10534 13595 ft 335 kts 105°
2026-04-30 13:48 51.36887 0.14194 14239 ft 339 kts 105°
2026-04-30 13:49 51.36372 0.17890 14836 ft 342 kts 105°
2026-04-30 13:49 51.35847 0.21625 15434 ft 346 kts 105°
2026-04-30 13:49 51.35316 0.25389 16023 ft 349 kts 105°
2026-04-30 13:49 51.34777 0.29198 16589 ft 353 kts 105°
2026-04-30 13:50 51.34231 0.33039 17173 ft 356 kts 105°
2026-04-30 13:50 51.33114 0.40841 18367 ft 364 kts 105°
2026-04-30 13:50 51.32546 0.44796 18939 ft 367 kts 105°
2026-04-30 13:51 51.31971 0.48795 19524 ft 369 kts 105°
2026-04-30 13:51 51.31394 0.52796 20115 ft 371 kts 105°
2026-04-30 13:51 51.30808 0.56841 20727 ft 373 kts 105°
2026-04-30 13:51 51.30213 0.60869 21328 ft 375 kts 106°
2026-04-30 13:52 51.29539 0.64906 21910 ft 376 kts 108°
2026-04-30 13:52 51.28820 0.68863 22463 ft 377 kts 108°
2026-04-30 13:52 51.28061 0.72886 23027 ft 379 kts 109°
2026-04-30 13:52 51.27293 0.76917 23572 ft 381 kts 109°
2026-04-30 13:53 51.26526 0.80969 24066 ft 383 kts 108°
2026-04-30 13:53 51.25760 0.85058 24502 ft 385 kts 108°
2026-04-30 13:53 51.25000 0.89135 24921 ft 387 kts 108°
2026-04-30 13:53 51.24231 0.93277 25328 ft 389 kts 108°
2026-04-30 13:54 51.23528 0.97082 25679 ft 391 kts 108°
2026-04-30 13:54 51.22698 1.01577 26063 ft 395 kts 108°
2026-04-30 13:54 51.21910 1.05830 26450 ft 397 kts 108°
2026-04-30 13:54 51.21123 1.10061 26835 ft 399 kts 108°
2026-04-30 13:55 51.20329 1.14313 27212 ft 401 kts 108°
2026-04-30 13:55 51.19537 1.18562 27587 ft 404 kts 108°
2026-04-30 13:55 51.18727 1.22897 27960 ft 406 kts 108°
2026-04-30 13:55 51.17914 1.27216 28333 ft 408 kts 109°
2026-04-30 13:56 51.17094 1.31552 28702 ft 410 kts 109°
2026-04-30 13:56 51.16362 1.35958 29062 ft 414 kts 103°
2026-04-30 13:56 51.16040 1.40529 29413 ft 418 kts 97°
2026-04-30 13:56 51.15830 1.45165 29755 ft 421 kts 96°
2026-04-30 13:57 51.15611 1.49827 30067 ft 423 kts 97°
2026-04-30 13:57 51.15383 1.54511 30381 ft 426 kts 97°
2026-04-30 13:57 51.15150 1.59233 30710 ft 426 kts 97°
2026-04-30 13:57 51.14917 1.63930 31130 ft 425 kts 97°
2026-04-30 13:58 51.14683 1.68617 31553 ft 424 kts 97°
2026-04-30 13:58 51.14220 1.77932 32399 ft 421 kts 97°
2026-04-30 13:58 51.13987 1.82583 32827 ft 420 kts 97°
2026-04-30 13:59 51.13751 1.87214 33259 ft 419 kts 97°
2026-04-30 13:59 51.13510 1.91826 33671 ft 418 kts 97°
2026-04-30 13:59 51.13265 1.96431 34128 ft 416 kts 97°
2026-04-30 13:59 51.13021 2.01013 34515 ft 415 kts 97°
2026-04-30 14:00 51.12778 2.05588 34832 ft 415 kts 97°
2026-04-30 14:00 51.12293 2.14689 35402 ft 416 kts 97°
2026-04-30 14:00 51.12045 2.19339 35679 ft 417 kts 97°
2026-04-30 14:01 51.11797 2.23947 35949 ft 417 kts 97°
2026-04-30 14:01 51.11548 2.28542 36207 ft 418 kts 97°
2026-04-30 14:01 51.11298 2.33095 36450 ft 419 kts 97°
2026-04-30 14:01 51.11038 2.37777 36709 ft 419 kts 96°
2026-04-30 14:02 51.10784 2.42338 36976 ft 419 kts 97°
2026-04-30 14:02 51.10525 2.46954 37192 ft 420 kts 96°
2026-04-30 14:02 51.09990 2.56283 37241 ft 426 kts 97°
2026-04-30 14:03 51.09333 2.65637 37248 ft 425 kts 103°
2026-04-30 14:03 51.07750 2.74689 37249 ft 424 kts 107°
2026-04-30 14:04 51.06115 2.83709 37241 ft 425 kts 107°
2026-04-30 14:04 51.04486 2.92706 37253 ft 423 kts 107°
2026-04-30 14:05 51.02842 3.01693 37258 ft 423 kts 107°
2026-04-30 14:05 51.01199 3.10604 37261 ft 423 kts 107°
2026-04-30 14:06 50.98708 3.24047 37262 ft 423 kts 107°
2026-04-30 14:07 50.96208 3.37477 37265 ft 423 kts 107°
2026-04-30 14:08 50.93691 3.50862 37272 ft 422 kts 107°
2026-04-30 14:08 50.91162 3.64201 37281 ft 421 kts 107°
2026-04-30 14:09 50.89471 3.73088 37270 ft 421 kts 107°
2026-04-30 14:10 50.86897 3.86358 37287 ft 421 kts 107°
2026-04-30 14:10 50.85166 3.95225 37290 ft 420 kts 107°
2026-04-30 14:11 50.83439 4.04057 37291 ft 420 kts 107°
2026-04-30 14:11 50.81710 4.12881 37305 ft 420 kts 107°
2026-04-30 14:12 50.79986 4.21630 37319 ft 420 kts 107°
2026-04-30 14:12 50.78240 4.30441 37309 ft 420 kts 107°
2026-04-30 14:13 50.76487 4.39253 37316 ft 421 kts 107°
2026-04-30 14:13 50.74729 4.48067 37313 ft 421 kts 108°
2026-04-30 14:14 50.72958 4.56865 37307 ft 421 kts 108°
2026-04-30 14:14 50.71196 4.65676 37308 ft 421 kts 107°
2026-04-30 14:15 50.69491 4.74514 37292 ft 421 kts 107°
2026-04-30 14:15 50.67793 4.83344 37284 ft 421 kts 107°
2026-04-30 14:16 50.65442 4.91766 37291 ft 422 kts 123°
2026-04-30 14:16 50.61543 4.98678 37288 ft 424 kts 134°
2026-04-30 14:17 50.57330 5.05172 37280 ft 424 kts 134°
2026-04-30 14:17 50.53124 5.11689 37296 ft 424 kts 134°
2026-04-30 14:18 50.48939 5.18147 37284 ft 425 kts 134°
2026-04-30 14:18 50.42593 5.27899 37275 ft 426 kts 134°
2026-04-30 14:19 50.36232 5.37637 37287 ft 427 kts 134°
2026-04-30 14:20 50.31977 5.44125 37288 ft 427 kts 134°
2026-04-30 14:20 50.26305 5.52733 37298 ft 427 kts 134°
2026-04-30 14:21 50.22047 5.59174 37302 ft 426 kts 134°
2026-04-30 14:22 50.15665 5.68827 37303 ft 426 kts 134°
2026-04-30 14:22 50.09258 5.78466 37300 ft 427 kts 134°
2026-04-30 14:23 50.01911 5.92808 37300 ft 424 kts 125°
2026-04-30 14:24 49.96573 6.03781 37300 ft 425 kts 125°
2026-04-30 14:25 49.89400 6.18419 37303 ft 426 kts 125°
2026-04-30 14:26 49.84006 6.29405 37306 ft 427 kts 125°
2026-04-30 14:27 49.78617 6.40311 37320 ft 427 kts 125°
2026-04-30 14:27 49.75003 6.47610 37312 ft 428 kts 125°
2026-04-30 14:28 49.71790 6.55281 37303 ft 424 kts 114°
2026-04-30 14:28 49.70498 6.59389 37298 ft 425 kts 114°
2026-04-30 14:28 49.67911 6.67584 37297 ft 425 kts 114°
2026-04-30 14:29 49.62691 6.83959 37301 ft 425 kts 114°
2026-04-30 14:31 49.56151 7.04362 37323 ft 425 kts 114°
2026-04-30 14:31 49.52200 7.16574 37326 ft 425 kts 114°
2026-04-30 14:32 49.48232 7.28805 37307 ft 427 kts 114°
2026-04-30 14:33 49.45573 7.36984 37305 ft 428 kts 114°
2026-04-30 14:33 49.41562 7.49266 37308 ft 429 kts 114°
2026-04-30 14:34 49.38871 7.57461 37322 ft 430 kts 114°
2026-04-30 14:34 49.36172 7.65641 37325 ft 430 kts 114°
2026-04-30 14:35 49.32111 7.77895 37322 ft 430 kts 114°
2026-04-30 14:36 49.29401 7.86065 37319 ft 430 kts 114°
2026-04-30 14:36 49.26706 7.94159 37317 ft 430 kts 114°
2026-04-30 14:37 49.23979 8.02308 37340 ft 430 kts 113°
2026-04-30 14:37 49.21247 8.10446 37327 ft 430 kts 113°
2026-04-30 14:38 49.18505 8.18573 37328 ft 430 kts 113°
2026-04-30 14:38 49.15768 8.26700 37324 ft 430 kts 113°
2026-04-30 14:39 49.13024 8.34819 37313 ft 430 kts 113°
2026-04-30 14:39 49.10284 8.42880 37312 ft 430 kts 114°
2026-04-30 14:40 49.06129 8.55073 37309 ft 430 kts 114°
2026-04-30 14:40 49.03366 8.63156 37309 ft 430 kts 114°
2026-04-30 14:41 49.00590 8.71235 37303 ft 430 kts 114°
2026-04-30 14:41 48.97808 8.79306 37302 ft 430 kts 114°
2026-04-30 14:42 48.95024 8.87363 37312 ft 431 kts 113°
2026-04-30 14:42 48.92252 8.95352 37302 ft 431 kts 114°
2026-04-30 14:43 48.89424 9.03486 37293 ft 432 kts 114°
2026-04-30 14:43 48.86628 9.11496 37295 ft 432 kts 114°
2026-04-30 14:44 48.83809 9.19548 37300 ft 432 kts 114°
2026-04-30 14:44 48.80979 9.27603 37311 ft 433 kts 113°
2026-04-30 14:45 48.78146 9.35663 37303 ft 433 kts 113°
2026-04-30 14:45 48.75303 9.43723 37290 ft 434 kts 114°
2026-04-30 14:46 48.72441 9.51784 37299 ft 434 kts 114°
2026-04-30 14:46 48.69575 9.59838 37302 ft 434 kts 114°
2026-04-30 14:47 48.66691 9.67886 37319 ft 436 kts 114°
2026-04-30 14:47 48.63668 9.75767 37310 ft 438 kts 116°
2026-04-30 14:48 48.60593 9.83434 37309 ft 439 kts 116°
2026-04-30 14:48 48.57357 9.91516 37311 ft 439 kts 116°
2026-04-30 14:49 48.54237 9.99397 37331 ft 439 kts 116°
2026-04-30 14:49 48.51126 10.07263 37355 ft 439 kts 116°
2026-04-30 14:50 48.46357 10.19253 37346 ft 440 kts 116°
2026-04-30 14:51 48.41642 10.31054 37346 ft 440 kts 116°
2026-04-30 14:52 48.36888 10.42902 37384 ft 441 kts 115°
2026-04-30 14:52 48.32111 10.54732 37351 ft 442 kts 116°
2026-04-30 14:53 48.27309 10.66557 37324 ft 442 kts 116°
2026-04-30 14:54 48.20896 10.82301 37330 ft 443 kts 116°
2026-04-30 14:55 48.16228 10.93713 37322 ft 444 kts 116°
2026-04-30 14:56 48.09581 11.09863 37325 ft 444 kts 116°
2026-04-30 14:57 48.04728 11.21609 37352 ft 445 kts 116°
2026-04-30 14:58 47.98186 11.37346 37346 ft 446 kts 116°
2026-04-30 14:58 47.93259 11.49123 37346 ft 447 kts 116°
2026-04-30 15:00 47.85022 11.68735 37331 ft 447 kts 116°
2026-04-30 15:01 47.78386 11.84426 37334 ft 449 kts 117°
2026-04-30 15:01 47.73377 11.96196 37336 ft 450 kts 116°
2026-04-30 15:02 47.70033 12.04052 37339 ft 450 kts 117°
2026-04-30 15:03 47.61616 12.23660 37325 ft 451 kts 117°
2026-04-30 15:04 47.52782 12.42903 37317 ft 455 kts 123°
2026-04-30 15:06 47.43025 12.61383 37328 ft 457 kts 123°
2026-04-30 15:07 47.35185 12.76149 37308 ft 458 kts 123°
2026-04-30 15:08 47.27337 12.90870 37293 ft 459 kts 123°
2026-04-30 15:08 47.21393 13.01947 36699 ft 464 kts 123°
2026-04-30 15:09 47.17375 13.09420 35190 ft 467 kts 123°
2026-04-30 15:09 47.13324 13.16933 33384 ft 471 kts 122°
2026-04-30 15:10 47.09323 13.24298 32349 ft 454 kts 122°
2026-04-30 15:11 47.02247 13.37323 30377 ft 439 kts 122°
2026-04-30 15:11 46.98488 13.44221 29260 ft 427 kts 122°
2026-04-30 15:12 46.93017 13.54212 27748 ft 411 kts 122°
2026-04-30 15:13 46.89480 13.60662 26820 ft 402 kts 123°
2026-04-30 15:14 46.82580 13.73218 25026 ft 391 kts 123°
2026-04-30 15:14 46.77513 13.82418 23710 ft 389 kts 123°
2026-04-30 15:16 46.69166 13.97426 21410 ft 377 kts 124°
2026-04-30 15:17 46.62645 14.09113 19503 ft 369 kts 124°
2026-04-30 15:18 46.52612 14.20610 17040 ft 367 kts 149°
2026-04-30 15:19 46.45901 14.25809 15618 ft 362 kts 149°